Regional Weather Roundup
Issued by NWS

Home | Current Version | Previous Version | Text Only | Print | Product List | Glossary On
Versions: 1 2 3 4 5 6 7 8 9 10 11 12 13 14 15 16 17 18 19 20 21 22 23 24 25 26 27 28 29 30 31 32 33 34 35 36 37 38 39 40 41 42 43 44 45 46 47 48 49 50
000
ASUS44 KLIX 212214
RWRLA
LOUISIANA WEATHER ROUNDUP
NATIONAL WEATHER SERVICE NEW ORLEANS LA
500 PM CDT FRI JUL 21 2017

NOTE: "FAIR" INDICATES FEW OR NO CLOUDS BELOW 12,000 FEET WITH NO
      SIGNIFICANT WEATHER AND/OR OBSTRUCTIONS TO VISIBILITY.
      SKY/WX - SKY CONDITION AND SIGNIFICANT WEATHER.
      TMP - AIR TEMPERATURE.    DP   - DEWPOINT TEMPERATURE.
      RH  - RELATIVE HUMIDITY.  PRES - PRESSURE.
      HX  - HEAT INDEX.         WCI  - WIND CHILL INDEX.

*  THESE STATIONS ARE NOT NWS OR FAA STATIONS AND ARE NOT UNDER
   NWS QUALITY CONTROL.

LAZ040-048-061>063-065-066-069-212300-
SOUTHEAST LOUISIANA

CITY           SKY/WX    TMP DP  RH WIND       PRES   REMARKS
N.O. INTL ARPT PTSUNNY   89  73  59 S7        30.00R HX  97
N.O. LAKEFRONT MOSUNNY   89  71  55 S6        30.00R HX  95
N.O. DOWNTOWN*   N/A     91  72  53 CALM        N/A  HX  98
RESERVE*       FAIR      88  74  62 W3        30.01R HX  96
SLIDELL        TSTM      80  75  84 NE8       30.01R
BATON ROUGE    LGT RAIN  79  71  76 SE14      29.99R
BOOTHVILLE     NOT AVBL
BELLE CHASSE   NOT AVBL
BOGALUSA*      CLOUDY    75  70  83 SE5       30.03R THUNDER
GALLIANO*      CLOUDY    85  76  74 NW5       29.99R
NEW ROADS*     FAIR      91  75  60 S6        29.97S HX 101
GONZALES*      MOCLDY    81  73  76 NE6       30.01R
HAMMOND*       CLOUDY    84  72  65 SE3       30.00R
HOUMA*         MOSUNNY   88  79  74 W6        29.99F HX 102
PORT FOURCHON* PTCLDY    88  77  70 S6G14     29.98F HX 100

$$

LAZ041-044-053-054-212300-
SOUTHWEST LOUISIANA

CITY           SKY/WX    TMP DP  RH WIND       PRES   REMARKS
LAKE CHARLES   CLOUDY    87  77  72 S7        29.97F HX  99
LAFAYETTE      CLOUDY    87  73  62 SW8       29.97F
PATTERSON      PTSUNNY   79  74  84 CALM      30.00F
SALT POINT       N/A     80  74  81 VRB3      29.97F
NEW IBERIA     CLOUDY    86  72  62 VRB7      30.00R
CHENAULT AIRPK PTSUNNY   86  77  74 SW10      29.98S HX  97

$$

LAZ027-028-212300-
CENTRAL LOUISIANA

CITY           SKY/WX    TMP DP  RH WIND       PRES   REMARKS
FORT POLK      CLOUDY    78  73  83 CALM      29.99R
ALEXANDRIA INT CLOUDY    89  76  65 SW8       29.94S HX 100
ALEXANDRIA     MOSUNNY   94  74  52 S5        29.95F HX 104

$$

LAZ001-002-212300-
NORTHWEST LOUISIANA

CITY           SKY/WX    TMP DP  RH WIND       PRES   REMARKS
SHREVEPORT     PTSUNNY   93  74  53 SW9       29.95F HX 103
BARKSDALE AFB  NOT AVBL
DTN SHREVEPORT CLOUDY    91  74  57 W7        29.95F HX 100

$$

LAZ014-016-212300-
NORTHEAST LOUISIANA

CITY           SKY/WX    TMP DP  RH WIND       PRES   REMARKS
MONROE         MOSUNNY   95  72  47 E3        29.95F HX 103
TALLULAH       CLOUDY    94  72  48 S6        29.95F HX 102

$$




USA.gov is the U.S. government's official web portal to all federal, state and local government web resources and services.